CWLEESTJE Weather Reports


Display with metric or nautical units.
time (UTC)temp
F
wind
direction
speed
MPH
gust
MPH
rain 1hr
in
rain 24hr
in
rain mn
in
humidity
%
barometer
mb
20260510014521 51 17 5.0 8.0 0.00 0.00 0.00 87
20260510013555 50 18 5.0 8.0 0.00 0.00 0.00 87
20260510012518 50 20 6.0 9.0 0.00 0.00 0.00 86
20260510011531 50 15 6.0 9.0 0.00 0.00 0.00 86
20260510010546 51 17 6.0 9.0 0.00 0.00 0.00 85
20260510005549 51 16 6.0 9.0 0.00 0.00 0.00 85
20260510004541 51 29 6.0 10.0 0.00 0.00 0.00 84
20260510003521 52 23 5.0 8.0 0.00 0.00 0.00 84
20260510002534 52 26 4.0 8.0 0.00 0.00 0.00 83
20260510001518 52 19 4.0 9.0 0.00 0.00 0.00 83
20260510000530 52 28 6.0 10.0 0.00 0.00 0.00 83
20260509235534 52 32 8.0 11.0 0.00 0.00 0.00 82
20260509234527 52 34 6.0 9.0 0.00 0.00 0.00 82
20260509233531 53 24 7.0 11.0 0.00 0.00 0.00 81
20260509232525 53 24 8.0 11.0 0.00 0.00 0.00 80
20260509231524 53 24 8.0 12.0 0.00 0.00 0.00 80
20260509230537 53 34 8.0 12.0 0.00 0.00 0.00 80
20260509225520 53 28 8.0 13.0 0.00 0.00 0.00 79
20260509224524 53 32 8.0 12.0 0.00 0.00 0.00 79
20260509223518 53 28 8.0 13.0 0.00 0.00 0.00 79
20260509222522 53 30 7.0 13.0 0.00 0.00 0.00 79
20260509221556 53 360 8.0 11.0 0.00 0.00 0.00 78
20260509220541 53 13 7.0 12.0 0.00 0.00 0.00 78
20260509215522 53 360 7.0 11.0 0.00 0.00 0.00 78
20260509214536 53 13 8.0 11.0 0.00 0.00 0.00 77
20260509213521 53 15 6.0 11.0 0.00 0.00 0.00 77
20260509212534 53 23 6.0 11.0 0.00 0.00 0.00 77
20260509211518 53 28 7.0 10.0 0.00 0.00 0.00 77
20260509210523 54 14 7.0 10.0 0.00 0.00 0.00 76
20260509205536 54 11 7.0 9.0 0.00 0.00 0.00 75
20260509204546 55 15 6.0 9.0 0.00 0.00 0.00 74
20260509203551 55 22 8.0 10.0 0.00 0.00 0.00 73
20260509202523 56 22 7.0 9.0 0.00 0.00 0.00 72
20260509201526 56 30 5.0 8.0 0.00 0.00 0.00 71
20260509200539 56 32 5.0 11.0 0.00 0.00 0.00 71
20260509195524 57 36 6.0 11.0 0.00 0.00 0.00 70
20260509194537 57 5 7.0 10.0 0.00 0.00 0.00 70
20260509193521 57 19 7.0 10.0 0.00 0.00 0.00 70
20260509192521 58 20 6.0 11.0 0.00 0.00 0.00 70
20260509191534 58 14 7.0 10.0 0.00 0.00 0.00 69
20260509190518 59 9 8.0 10.0 0.00 0.00 0.00 68
20260509185531 60 16 9.0 13.0 0.00 0.00 0.00 67
20260509184535 60 9 9.0 14.0 0.00 0.00 0.00 66
20260509183529 61 37 9.0 13.0 0.00 0.00 0.00 65
20260509182532 62 22 7.0 14.0 0.00 0.00 0.00 65
20260509181542 63 22 10.0 16.0 0.00 0.00 0.00 63
20260509180526 63 11 9.0 14.0 0.00 0.00 0.00 63
20260509175538 64 44 9.0 15.0 0.00 0.00 0.00 63
20260509174523 64 10 9.0 18.0 0.00 0.00 0.00 62
20260509173527 65 5 11.0 18.0 0.00 0.00 0.00 61
20260509172540 65 360 8.0 18.0 0.00 0.00 0.00 63
20260509171532 66 14 10.0 19.0 0.00 0.00 0.00 61
20260509170536 66 13 11.0 19.0 0.00 0.00 0.00 61
20260509165527 67 19 11.0 18.0 0.00 0.00 0.00 61
20260509164531 67 17 9.0 18.0 0.00 0.00 0.00 60
20260509163543 67 5 15.0 21.0 0.00 0.00 0.00 59
20260509162527 68 5 12.0 20.0 0.00 0.00 0.00 58
20260509161541 69 15 11.0 21.0 0.00 0.00 0.00 60
20260509160525 69 31 14.0 21.0 0.00 0.00 0.00 58
20260509155529 69 17 14.0 23.0 0.00 0.00 0.00 58
20260509154521 69 24 12.0 19.0 0.00 0.00 0.00 58
20260509153522 70 30 7.0 15.0 0.00 0.00 0.00 54
20260509152556 70 24 9.0 18.0 0.00 0.00 0.00 53
20260509151530 70 30 6.0 13.0 0.00 0.00 0.00 55
20260509150553 69 40 6.0 12.0 0.00 0.00 0.00 55
20260509145525 69 46 9.0 16.0 0.00 0.00 0.00 54
20260509144530 70 56 8.0 15.0 0.00 0.00 0.00 53
20260509143519 69 55 10.0 16.0 0.00 0.00 0.00 54
20260509142519 69 82 7.0 12.0 0.00 0.00 0.00 55
20260509141533 69 44 10.0 15.0 0.00 0.00 0.00 54
20260509140607 70 89 9.0 13.0 0.00 0.00 0.00 56
20260509135531 70 76 5.0 10.0 0.00 0.00 0.00 55
20260509134543 69 54 4.0 14.0 0.00 0.00 0.00 54
20260509133527 70 67 10.0 16.0 0.00 0.00 0.00 54
20260509132532 70 76 7.0 14.0 0.00 0.00 0.00 56
20260509131524 70 40 8.0 21.0 0.00 0.00 0.00 53
20260509130524 69 86 8.0 15.0 0.00 0.00 0.00 56
20260509125558 69 52 9.0 16.0 0.00 0.00 0.00 53
20260509124522 69 45 3.0 15.0 0.00 0.00 0.00 55
20260509123534 68 99 8.0 13.0 0.00 0.00 0.00 56
20260509122518 70 53 10.0 13.0 0.00 0.00 0.00 54
20260509121532 70 37 7.0 12.0 0.00 0.00 0.00 55
20260509120536 70 71 9.0 12.0 0.00 0.00 0.00 55
20260509115524 69 105 4.0 10.0 0.00 0.00 0.00 56
20260509114529 69 60 1.0 14.0 0.00 0.00 0.00 54
20260509113542 69 40 6.0 15.0 0.00 0.00 0.00 55
20260509112526 69 40 9.0 13.0 0.00 0.00 0.00 54
20260509111540 69 83 9.0 14.0 0.00 0.00 0.00 55
20260509110525 69 50 4.0 16.0 0.00 0.00 0.00 55
20260509105538 68 67 8.0 14.0 0.00 0.00 0.00 56
20260509104522 68 58 10.0 16.0 0.00 0.00 0.00 54
20260509103522 68 76 8.0 16.0 0.00 0.00 0.00 57
20260509102556 68 65 8.0 15.0 0.00 0.00 0.00 58
20260509101528 68 98 8.0 15.0 0.00 0.00 0.00 56
20260509100533 67 42 8.0 14.0 0.00 0.00 0.00 57
20260509095546 67 58 10.0 16.0 0.00 0.00 0.00 57
20260509094530 67 80 11.0 15.0 0.00 0.00 0.00 56
20260509093523 67 80 9.0 16.0 0.00 0.00 0.00 57
20260509092553 66 87 10.0 13.0 0.00 0.00 0.00 60
20260509091536 65 109 11.0 14.0 0.00 0.00 0.00 61
20260509090519 65 105 10.0 13.0 0.00 0.00 0.00 62
20260509085532 65 94 11.0 14.0 0.00 0.00 0.00 63
20260509084546 64 95 10.0 14.0 0.00 0.00 0.00 63
20260509083531 64 78 9.0 14.0 0.00 0.00 0.00 63
20260509082544 63 108 11.0 15.0 0.00 0.00 0.00 63
20260509081543 63 105 11.0 16.0 0.00 0.00 0.00 63
20260509080555 63 86 10.0 13.0 0.00 0.00 0.00 64
20260509075547 63 72 9.0 13.0 0.00 0.00 0.00 65
20260509074530 63 96 9.0 12.0 0.00 0.00 0.00 68
20260509073546 62 77 7.0 10.0 0.00 0.00 0.00 69
20260509072548 61 86 7.0 10.0 0.00 0.00 0.00 71
20260509071540 60 61 7.0 9.0 0.00 0.00 0.00 73
20260509070519 59 86 8.0 10.0 0.00 0.00 0.00 74
20260509065552 58 84 7.0 10.0 0.00 0.00 0.00 74
20260509064604 57 58 6.0 10.0 0.00 0.00 0.00 75
20260509063526 57 52 6.0 9.0 0.00 0.00 0.00 77
20260509062539 56 53 7.0 8.0 0.00 0.00 0.00 78
20260509061522 54 60 5.0 9.0 0.00 0.00 0.00 80
20260509060538 53 65 4.0 7.0 0.00 0.00 0.00 83
20260509055537 51 72 4.0 6.0 0.00 0.00 0.00 85
20260509054521 50 67 4.0 5.0 0.00 0.00 0.00 87
20260509053556 49 67 3.0 5.0 0.00 0.00 0.00 88
20260509052527 47 65 3.0 5.0 0.00 0.00 0.00 88
20260509051531 46 65 2.0 3.0 0.00 0.00 0.00 87
20260509050544 46 65 2.0 6.0 0.00 0.00 0.00 87
20260509045528 46 62 4.0 5.0 0.00 0.00 0.00 87
20260509044556 46 61 4.0 5.0 0.00 0.00 0.00 86
20260509043540 46 61 4.0 6.0 0.00 0.00 0.00 86
20260509042532 46 53 5.0 6.0 0.00 0.00 0.00 86
20260509041545 46 50 5.0 7.0 0.00 0.00 0.00 86
20260509040528 46 45 5.0 6.0 0.00 0.00 0.00 87
20260509035542 46 44 3.0 5.0 0.00 0.00 0.00 87
20260509034527 46 44 4.0 6.0 0.00 0.00 0.00 87
20260509033556 46 48 5.0 6.0 0.00 0.00 0.00 87
20260509032539 45 57 4.0 5.0 0.00 0.00 0.00 87
20260509031552 46 59 2.0 4.0 0.00 0.00 0.00 87
20260509030524 46 60 2.0 5.0 0.00 0.00 0.00 87
20260509025557 46 60 4.0 5.0 0.00 0.00 0.00 87
20260509024555 46 61 3.0 5.0 0.00 0.00 0.00 87
20260509023526 46 62 3.0 5.0 0.00 0.00 0.00 86
20260509022530 47 65 3.0 5.0 0.00 0.00 0.00 85
20260509021543 47 65 2.0 3.0 0.00 0.00 0.00 85
20260509020526 48 65 2.0 3.0 0.00 0.00 0.00 85
20260509015540 48 65 2.0 3.0 0.00 0.00 0.00 84